{"data":{"norad_id":52159,"intl_designator":"2022-033C","name":"ENMAP","alt_names":[],"object_type":"PAYLOAD","status":"ACTIVE","operator":null,"country":"GER","launch_date":"2022-04-01","launch_site_code":"AFETR","launch_vehicle":null,"mission":null,"orbit_class":"UNKNOWN","rcs_meters":null,"size_class":null,"mass_kg":null,"dimensions":null,"purposes":[],"wikipedia_slug":null,"has_3d_model":false,"image_url":null,"decayed_at":null,"tle_current":{"epoch":"2026-09-20T22:54:39.078144Z","epoch_age_seconds":81568,"freshness":"FRESH","line1":"1 52159U 22033C   26263.95461896  .00000151  00000+0  29893-4 0  9990","line2":"2 52159  97.9768 344.8270 0001626  86.5542 273.5853 14.74988817240773","mean_motion":14.74988817,"eccentricity":0.0001626,"inclination_deg":97.9768,"raan_deg":344.827,"arg_perigee_deg":86.5542,"mean_anomaly_deg":273.5853,"bstar":2.9893e-5,"rev_number":24077,"period_min":97.627858828709,"perigee_km":644.04477836985,"apogee_km":646.32876326012,"semimajor_km":7023.323770815,"source":"CELESTRAK","updated_at":"2026-09-21T09:00:08.492851Z"}}}